| time (UTC) | temp F | wind direction | speed MPH | gust MPH | rain 1hr in | rain 24hr in | rain mn in | humidity % | barometer mb |
| 20260509044557 | 51 | 261 | 0.0 | 0.0 | 0.00 | 0.00 | 0.00 | 98 | 1025.0 |
| 20260509043046 | 52 | 261 | 0.0 | 0.0 | 0.00 | 0.00 | 0.00 | 97 | 1024.9 |
| 20260509041546 | 53 | 261 | 0.0 | 0.0 | 0.00 | 0.00 | 0.00 | 95 | 1024.9 |
| 20260509040045 | 54 | 261 | 0.0 | 0.0 | 0.00 | 0.00 | 0.00 | 95 | 1025.0 |
| 20260509034545 | 54 | 261 | 0.0 | 2.0 | 0.00 | 0.00 | 0.00 | 95 | 1024.9 |
| 20260509033045 | 55 | 261 | 0.0 | 2.0 | 0.00 | 0.00 | 0.00 | 94 | 1025.0 |
| 20260509031548 | 55 | 274 | 1.0 | 4.0 | 0.00 | 0.00 | 0.00 | 94 | 1024.9 |
| 20260509030044 | 55 | 208 | 0.0 | 4.0 | 0.00 | 0.00 | 0.00 | 94 | 1024.8 |
| 20260509024543 | 55 | 209 | 3.0 | 7.0 | 0.00 | 0.00 | 0.00 | 93 | 1024.8 |
| 20260509023055 | 55 | 274 | 0.0 | 5.0 | 0.00 | 0.00 | 0.00 | 93 | 1024.9 |
| 20260509021542 | 55 | 225 | 1.0 | 8.0 | 0.00 | 0.00 | 0.00 | 92 | 1024.8 |
| 20260509020042 | 56 | 219 | 1.0 | 7.0 | 0.00 | 0.00 | 0.00 | 91 | 1024.9 |
| 20260509014544 | 56 | 219 | 1.0 | 9.0 | 0.00 | 0.00 | 0.00 | 90 | 1024.8 |
| 20260509013043 | 56 | 213 | 2.0 | 6.0 | 0.00 | 0.00 | 0.00 | 90 | 1024.8 |
| 20260509011540 | 56 | 237 | 8.0 | 13.0 | 0.00 | 0.00 | 0.00 | 88 | 1024.8 |
| 20260509010041 | 56 | 263 | 3.0 | 11.0 | 0.00 | 0.00 | 0.00 | 89 | 1024.8 |
| 20260509004541 | 56 | 200 | 3.0 | 13.0 | 0.00 | 0.00 | 0.00 | 89 | 1024.9 |
| 20260509003055 | 56 | 173 | 5.0 | 13.0 | 0.00 | 0.00 | 0.00 | 87 | 1024.9 |
| 20260509001538 | 57 | 219 | 8.0 | 14.0 | 0.00 | 0.00 | 0.00 | 87 | 1024.9 |
| 20260509000042 | 57 | 206 | 9.0 | 13.0 | 0.00 | 0.00 | 0.00 | 87 | 1025.0 |
| 20260508234540 | 57 | 218 | 5.0 | 16.0 | 0.00 | 0.00 | 0.00 | 86 | 1025.2 |
| 20260508233037 | 58 | 243 | 8.0 | 14.0 | 0.00 | 0.00 | 0.00 | 85 | 1025.1 |
| 20260508231536 | 58 | 280 | 3.0 | 14.0 | 0.00 | 0.00 | 0.00 | 84 | 1025.1 |
| 20260508230041 | 59 | 193 | 3.0 | 10.0 | 0.00 | 0.00 | 0.00 | 84 | 1025.0 |
| 20260508224535 | 58 | 219 | 5.0 | 17.0 | 0.00 | 0.00 | 0.00 | 83 | 1025.1 |
| 20260508223038 | 59 | 212 | 7.0 | 17.0 | 0.00 | 0.00 | 0.00 | 82 | 1025.1 |
| 20260508221536 | 58 | 199 | 9.0 | 19.0 | 0.00 | 0.00 | 0.00 | 82 | 1025.0 |
| 20260508220032 | 58 | 195 | 10.0 | 19.0 | 0.00 | 0.00 | 0.00 | 82 | 1025.0 |
| 20260508214531 | 58 | 200 | 10.0 | 18.0 | 0.00 | 0.00 | 0.00 | 83 | 1025.0 |
| 20260508213030 | 58 | 201 | 10.0 | 16.0 | 0.00 | 0.00 | 0.00 | 82 | 1024.9 |
| 20260508211529 | 58 | 235 | 5.0 | 17.0 | 0.00 | 0.00 | 0.00 | 81 | 1024.8 |
| 20260508210029 | 58 | 195 | 7.0 | 16.0 | 0.00 | 0.00 | 0.00 | 81 | 1024.7 |
| 20260508204532 | 57 | 209 | 7.0 | 20.0 | 0.00 | 0.00 | 0.00 | 83 | 1024.7 |
| 20260508203028 | 58 | 221 | 10.0 | 18.0 | 0.00 | 0.00 | 0.00 | 82 | 1024.6 |
| 20260508201527 | 59 | 199 | 8.0 | 16.0 | 0.00 | 0.00 | 0.00 | 79 | 1024.5 |
| 20260508200026 | 59 | 176 | 10.0 | 17.0 | 0.00 | 0.00 | 0.00 | 79 | 1024.3 |
| 20260508194538 | 60 | 207 | 5.0 | 16.0 | 0.00 | 0.00 | 0.00 | 79 | 1024.2 |
| 20260508193022 | 59 | 254 | 2.0 | 12.0 | 0.00 | 0.00 | 0.00 | 81 | 1024.0 |
| 20260508191520 | 59 | 218 | 3.0 | 11.0 | 0.00 | 0.00 | 0.00 | 80 | 1023.9 |
| 20260508190017 | 57 | 207 | 8.0 | 15.0 | 0.00 | 0.00 | 0.00 | 84 | 1024.1 |
| 20260508184514 | 55 | 202 | 7.0 | 13.0 | 0.00 | 0.00 | 0.00 | 84 | 1024.1 |
| 20260508183013 | 55 | 214 | 3.0 | 12.0 | 0.00 | 0.00 | 0.00 | 84 | 1024.3 |
| 20260508181520 | 55 | 192 | 2.0 | 15.0 | 0.00 | 0.00 | 0.00 | 85 | 1024.1 |
| 20260508180010 | 55 | 197 | 8.0 | 16.0 | 0.00 | 0.00 | 0.00 | 84 | 1024.1 |
| 20260508174509 | 55 | 178 | 8.0 | 14.0 | 0.00 | 0.00 | 0.00 | 85 | 1024.0 |
| 20260508173007 | 55 | 280 | 4.0 | 16.0 | 0.00 | 0.00 | 0.00 | 85 | 1023.8 |
| 20260508171509 | 55 | 221 | 4.0 | 15.0 | 0.00 | 0.00 | 0.00 | 84 | 1023.6 |
| 20260508170004 | 54 | 213 | 5.0 | 14.0 | 0.00 | 0.00 | 0.00 | 85 | 1023.7 |
| 20260508164501 | 54 | 247 | 6.0 | 15.0 | 0.00 | 0.00 | 0.00 | 86 | 1023.4 |
| 20260508163105 | 53 | 233 | 7.0 | 14.0 | 0.00 | 0.00 | 0.00 | 85 | 1023.3 |
| 20260508161605 | 52 | 189 | 2.0 | 7.0 | 0.00 | 0.00 | 0.00 | 89 | 1023.1 |
| 20260508160154 | 52 | 154 | 2.0 | 5.0 | 0.00 | 0.00 | 0.00 | 89 | 1023.0 |
| 20260508154557 | 52 | 202 | 1.0 | 7.0 | 0.00 | 0.00 | 0.00 | 90 | 1023.1 |
| 20260508153054 | 52 | 184 | 1.0 | 4.0 | 0.00 | 0.00 | 0.00 | 90 | 1022.9 |
| 20260508151547 | 52 | 174 | 1.0 | 4.0 | 0.00 | 0.00 | 0.00 | 91 | 1022.7 |
| 20260508150043 | 51 | 180 | 1.0 | 4.0 | 0.00 | 0.00 | 0.00 | 91 | 1022.4 |
| 20260508144539 | 51 | 167 | 0.0 | 3.0 | 0.00 | 0.00 | 0.00 | 92 | 1022.0 |
| 20260508143037 | 50 | 166 | 1.0 | 4.0 | 0.00 | 0.00 | 0.00 | 93 | 1022.1 |
| 20260508141533 | 50 | 170 | 0.0 | 1.0 | 0.00 | 0.00 | 0.00 | 94 | 1021.9 |
| 20260508140034 | 49 | 186 | 0.0 | 2.0 | 0.00 | 0.00 | 0.00 | 96 | 1021.8 |
| 20260508134528 | 49 | 195 | 0.0 | 1.0 | 0.00 | 0.00 | 0.00 | 97 | 1021.8 |
| 20260508133028 | 48 | 195 | 0.0 | 2.0 | 0.00 | 0.00 | 0.00 | 99 | 1022.0 |
| 20260508131524 | 48 | 203 | 0.0 | 1.0 | 0.00 | 0.00 | 0.00 | 100 | 1022.1 |
| 20260508130026 | 47 | 205 | 0.0 | 3.0 | 0.00 | 0.00 | 0.00 | 100 | 1021.8 |
| 20260508124520 | 47 | 209 | 0.0 | 3.0 | 0.00 | 0.00 | 0.00 | 100 | 1021.5 |
| 20260508123019 | 47 | 268 | 0.0 | 1.0 | 0.00 | 0.00 | 0.00 | 100 | 1021.5 |
| 20260508121518 | 47 | 268 | 0.0 | 0.0 | 0.00 | 0.00 | 0.00 | 100 | 1021.6 |
| 20260508120016 | 47 | 268 | 0.0 | 0.0 | 0.00 | 0.00 | 0.00 | 100 | 1021.6 |
| 20260508114514 | 47 | 268 | 0.0 | 0.0 | 0.00 | 0.00 | 0.00 | 100 | 1021.4 |
| 20260508113017 | 46 | 268 | 0.0 | 0.0 | 0.00 | 0.00 | 0.00 | 100 | 1021.4 |
| 20260508111513 | 46 | 268 | 0.0 | 0.0 | 0.00 | 0.00 | 0.00 | 100 | 1021.3 |
| 20260508110010 | 45 | 268 | 0.0 | 0.0 | 0.00 | 0.00 | 0.00 | 100 | 1021.4 |
| 20260508104506 | 45 | 268 | 0.0 | 0.0 | 0.00 | 0.00 | 0.00 | 100 | 1021.3 |
| 20260508103014 | 44 | 268 | 0.0 | 0.0 | 0.00 | 0.00 | 0.00 | 100 | 1021.1 |
| 20260508101505 | 44 | 268 | 0.0 | 0.0 | 0.00 | 0.00 | 0.00 | 100 | 1021.0 |
| 20260508094607 | 44 | 268 | 0.0 | 0.0 | 0.00 | 0.00 | 0.00 | 100 | 1020.7 |
| 20260508093056 | 43 | 268 | 0.0 | 0.0 | 0.00 | 0.00 | 0.00 | 100 | 1020.7 |
| 20260508091559 | 43 | 268 | 0.0 | 0.0 | 0.00 | 0.00 | 0.00 | 100 | 1020.6 |
| 20260508090055 | 43 | 268 | 0.0 | 0.0 | 0.00 | 0.00 | 0.00 | 100 | 1020.5 |
| 20260508084552 | 43 | 268 | 0.0 | 0.0 | 0.00 | 0.00 | 0.00 | 100 | 1020.5 |
| 20260508083053 | 42 | 268 | 0.0 | 0.0 | 0.00 | 0.00 | 0.00 | 100 | 1020.4 |
| 20260508081604 | 42 | 268 | 0.0 | 0.0 | 0.00 | 0.00 | 0.00 | 100 | 1020.3 |
| 20260508080049 | 42 | 268 | 0.0 | 0.0 | 0.00 | 0.00 | 0.00 | 100 | 1020.3 |
| 20260508074547 | 42 | 268 | 0.0 | 0.0 | 0.00 | 0.00 | 0.00 | 100 | 1020.4 |
| 20260508073046 | 42 | 268 | 0.0 | 0.0 | 0.00 | 0.00 | 0.00 | 100 | 1020.4 |
| 20260508071545 | 43 | 268 | 0.0 | 1.0 | 0.00 | 0.00 | 0.00 | 100 | 1020.4 |
| 20260508070046 | 43 | 268 | 0.0 | 0.0 | 0.00 | 0.00 | 0.00 | 99 | 1020.4 |
| 20260508064540 | 43 | 268 | 0.0 | 0.0 | 0.00 | 0.00 | 0.00 | 99 | 1020.3 |
| 20260508063039 | 44 | 268 | 0.0 | 0.0 | 0.00 | 0.00 | 0.00 | 99 | 1020.2 |
| 20260508061539 | 44 | 268 | 0.0 | 0.0 | 0.00 | 0.00 | 0.00 | 99 | 1020.3 |
| 20260508060037 | 44 | 268 | 0.0 | 1.0 | 0.00 | 0.00 | 0.00 | 99 | 1020.5 |
| 20260508054542 | 44 | 268 | 0.0 | 0.0 | 0.00 | 0.00 | 0.00 | 98 | 1020.2 |
| 20260508053035 | 45 | 268 | 0.0 | 2.0 | 0.00 | 0.00 | 0.00 | 98 | 1020.4 |
| 20260508051533 | 45 | 301 | 0.0 | 0.0 | 0.00 | 0.00 | 0.00 | 97 | 1020.3 |
| 20260508050032 | 45 | 301 | 0.0 | 0.0 | 0.00 | 0.00 | 0.00 | 97 | 1020.4 |